FW0523 Weather Reports


Display with metric or nautical units.
time (UTC)temp
F
wind
direction
speed
MPH
gust
MPH
rain 1hr
in
rain 24hr
in
rain mn
in
humidity
%
barometer
mb
20260505022403 56 264 1.0 9.0 0.00 0.00 5.37 31 1014.0
20260505021403 56 152 0.0 9.0 0.00 0.00 5.37 28 1013.9
20260505020404 57 189 3.0 9.0 0.00 0.00 5.37 26 1014.0
20260505015403 57 116 3.0 10.0 0.00 0.00 5.37 26 1013.9
20260505014403 58 200 4.0 10.0 0.00 0.00 5.37 26 1013.9
20260505013404 58 256 5.0 10.0 0.00 0.00 5.37 26 1013.8
20260505012402 59 202 1.0 5.0 0.00 0.00 5.37 25 1013.6
20260505011403 59 246 3.0 5.0 0.00 0.00 5.37 26 1013.5
20260505005304 60 360 0.0 9.0 0.00 0.00 5.37 25 1013.2
20260505004304 60 71 1.0 9.0 0.00 0.00 5.37 25 1013.4
20260505003304 60 322 3.0 7.0 0.00 0.00 5.37 23 1013.4
20260505002304 61 343 0.0 2.0 0.00 0.00 5.37 24 1013.5
20260505000204 61 267 4.0 10.0 0.00 0.00 5.37 24 1013.4
20260504235204 62 261 2.0 9.0 0.00 0.00 5.37 24 1013.4
20260504234202 62 360 1.0 10.0 0.00 0.00 5.37 26 1013.6
20260504233203 62 360 1.0 9.0 0.00 0.00 5.37 26 1013.5
20260504232203 61 161 1.0 7.0 0.00 0.00 5.37 26 1013.4
20260504231202 61 288 3.0 10.0 0.00 0.00 5.37 24 1013.5
20260504230203 61 301 3.0 9.0 0.00 0.00 5.37 26 1013.4
20260504225204 61 360 1.0 4.0 0.00 0.00 5.37 25 1013.4
20260504224202 62 360 0.0 10.0 0.00 0.00 5.37 27 1013.4
20260504223203 62 7 0.0 7.0 0.00 0.00 5.37 27 1013.4
20260504222203 61 319 2.0 10.0 0.00 0.00 5.37 27 1013.6
20260504221204 61 329 1.0 9.0 0.00 0.00 5.37 26 1013.5
20260504220204 61 287 0.0 0.0 0.00 0.00 5.37 27 1013.6
20260504215203 61 119 1.0 6.0 0.00 0.00 5.37 28 1013.8
20260504213104 61 42 3.0 4.0 0.00 0.00 5.37 30 1013.9
20260504212104 60 349 0.0 3.0 0.00 0.00 5.37 33 1013.9
20260504211103 60 16 3.0 6.0 0.00 0.00 5.37 35 1014.2
20260504205104 60 326 0.0 4.0 0.00 0.00 5.37 39 1014.4
20260504204103 59 343 4.0 9.0 0.00 0.00 5.37 41 1014.7
20260504203103 59 0 2.0 6.0 0.00 0.00 5.37 42 1014.7
20260504202104 59 344 1.0 8.0 0.00 0.00 5.37 41 1014.8
20260504201102 59 350 3.0 3.0 0.00 0.00 5.37 42 1014.8
20260504192903 57 343 4.0 9.0 0.00 0.00 5.37 47 1015.1
20260504191904 58 0 3.0 12.0 0.00 0.00 5.37 46 1015.2
20260504190904 58 350 4.0 6.0 0.00 0.00 5.37 46 1015.2
20260504185903 61 11 4.0 8.0 0.00 0.00 5.37 40 1015.4
20260504184903 61 304 2.0 10.0 0.00 0.00 5.37 32 1015.2
20260504183904 61 264 3.0 10.0 0.00 0.00 5.37 33 1015.6
20260504181804 60 21 0.0 8.0 0.00 0.00 5.37 37 1016.0
20260504174604 58 328 3.0 10.0 0.00 0.00 5.37 43 1016.7
20260504173603 57 294 3.0 13.0 0.00 0.00 5.37 48 1017.0
20260504172604 56 127 3.0 8.0 0.00 0.00 5.37 49 1017.0
20260504171604 57 7 4.0 10.0 0.00 0.00 5.37 45 1016.6
20260504160403 53 336 1.0 10.0 0.00 0.00 5.37 59 1017.5
20260504150304 49 123 0.0 0.0 0.00 0.00 5.37 78 1017.9
20260504141302 47 360 2.0 10.0 0.00 0.00 5.37 82 1018.0
20260504140303 46 196 0.0 0.0 0.00 0.00 5.37 83 1018.2
20260504130304 43 69 4.0 5.0 0.00 0.00 5.37 84 1018.3
20260504120104 44 216 3.0 9.0 0.00 0.00 5.37 83 1018.7
20260504110104 44 1 0.0 1.0 0.00 0.00 5.37 82 1019.9
20260504080603 46 360 0.0 7.0 0.00 0.00 3.73 74 1020.0
20260504050503 50 253 2.0 13.0 0.00 0.00 0.05 40 1018.8
20260504044403 49 335 1.0 5.0 0.00 0.00 0.05 41 1018.8
20260504041203 49 224 2.0 10.0 0.00 0.00 0.05 41 1019.1
20260504034003 50 210 0.0 8.0 0.00 0.00 0.05 41 1019.1
20260504033003 50 360 0.0 4.0 0.00 0.00 0.05 41 1018.9
20260504032006 51 360 2.0 3.0 0.00 0.00 0.05 40 1018.9
20260504031003 51 182 1.0 3.0 0.00 0.00 0.05 40 1019.1
20260504030003 52 195 2.0 3.0 0.00 0.00 0.05 40 1018.8
20260504025004 53 174 1.0 8.0 0.00 0.00 0.05 39 1018.8
20260504024002 53 360 1.0 3.0 0.00 0.00 0.05 38 1018.8